Location: Ithaca
(42.4410°N, 76.4970°W)
Time: 09:39:01
(UTC-04:00)

ISS - Visible Passes

Search period start: 25 March 2017 00:00
Search period end: 04 April 2017 00:00
Orbit: 399 x 409 km, 51.6° (Epoch: 25 March)

Date Brightness Start Highest point End Pass type
(mag) Time Alt. Az. Time Alt. Az. Time Alt. Az.
26 Mar -1.9 21:17:01 10° SW 21:18:21 22° SSW 21:18:21 22° SSW visible
27 Mar -2.9 20:25:04 10° SSW 20:27:55 29° SE 20:29:14 21° E visible
27 Mar -0.9 22:01:13 10° W 22:01:58 15° W 22:01:58 15° W visible
28 Mar -3.5 21:08:35 10° WSW 21:11:49 64° NNW 21:12:33 46° NNE visible
29 Mar -3.9 20:16:10 10° SW 20:19:24 70° SE 20:22:39 10° ENE visible
29 Mar -1.5 21:53:22 10° WNW 21:55:36 23° NW 21:55:36 23° NW visible
30 Mar -2.2 21:00:30 10° W 21:03:30 33° NNW 21:05:43 16° NE visible
31 Mar -3.1 20:07:46 10° WSW 20:10:57 53° NNW 20:14:10 10° NE visible
31 Mar -1.4 21:45:35 10° WNW 21:47:58 18° N 21:48:21 18° N visible
01 Apr -1.6 20:52:37 10° WNW 20:55:15 22° NNW 20:57:55 10° NE visible
01 Apr -0.4 22:30:23 10° NW 22:30:49 12° NNW 22:30:49 12° NNW visible
02 Apr -2.0 19:59:41 10° W 20:02:35 30° NNW 20:05:31 10° NE visible
02 Apr -1.3 21:37:39 10° NW 21:39:49 16° N 21:40:32 15° NNE visible
03 Apr -1.3 20:44:45 10° NW 20:47:03 17° N 20:49:21 10° NE visible
03 Apr -0.7 22:21:56 10° NW 22:22:48 14° NNW 22:22:48 14° NNW visible
